A/2019 O2

Japanese version
Home page
Updated on August 15, 2020

---------------------------------------------------------------------

* Profile

Discovery Date July 24, 2019
Magnitude 20.5 mag
Discoverer Pan-STARRS 1 telescope (Haleakala)

* Orbital Elements

Epoch 2023 Apr. 6.0 TT = JDT 2460040.5
T 2023 Apr. 7.23840 TT                                  Rudenko
q   9.6827035            (2000.0)            P               Q
z  +0.0172691      Peri.  129.64102     -0.39155596     -0.54009844
 +/-0.0000000      Node    48.26322     -0.76971503     -0.25137871
e   0.8327885      Incl.   93.30726     +0.50420502     -0.80318268
H    9.5
From 107 observations 2019 July 24-2020 Aug. 1, mean residual 0".4.

* Magnitudes Graph

        H = 9.2  G = 0.15

---------------------------------------------------------------------

The orbital elements are published on M.P.E.C. 2020-P19.
The magnitudes graphs are made with Comet for Windows.

---------------------------------------------------------------------

Copyright(C) Seiichi Yoshida (comet@aerith.net). All rights reserved.